Time,TemperatureF,DewpointF,PressureIn,WindDirection,WindDirectionDegrees,WindSpeedMPH,WindSpeedGustMPH,Humidity,HourlyPrecipIn,Conditions,Clouds,dailyrainin,SoftwareType,DateUTC
2013-11-10 00:00:00,42.5,34.5,29.99,NE,53,0.0,0.0,73,0.00,,,0.00,Wunderground v.1.15,2013-11-10 05:00:00,
2013-11-10 00:05:00,42.5,34.5,29.98,NE,53,0.0,0.0,73,0.00,,,0.00,Wunderground v.1.15,2013-11-10 05:05:00,
2013-11-10 00:10:00,42.5,34.5,29.98,NE,53,0.0,0.0,73,0.00,,,0.00,Wunderground v.1.15,2013-11-10 05:10:00,
2013-11-10 00:15:00,42.5,34.5,29.98,NE,53,0.0,0.0,73,0.00,,,0.00,Wunderground v.1.15,2013-11-10 05:15:00,
2013-11-10 00:20:00,42.3,34.3,29.98,NE,53,0.0,0.0,73,0.00,,,0.00,Wunderground v.1.15,2013-11-10 05:20:00,
2013-11-10 00:25:00,42.0,34.6,29.98,NE,53,0.0,0.0,75,0.00,,,0.00,Wunderground v.1.15,2013-11-10 05:25:00,
2013-11-10 00:30:00,41.4,33.7,29.98,NE,53,0.0,0.0,74,0.00,,,0.00,Wunderground v.1.15,2013-11-10 05:30:00,
2013-11-10 00:40:00,39.5,33.2,29.98,NE,53,0.0,0.0,78,0.00,,,0.00,Wunderground v.1.15,2013-11-10 05:40:00,
2013-11-10 00:45:00,38.8,32.8,29.97,NE,53,0.0,0.0,79,0.00,,,0.00,Wunderground v.1.15,2013-11-10 05:45:00,
2013-11-10 00:55:00,37.9,32.6,29.97,NE,53,0.0,0.0,81,0.00,,,0.00,Wunderground v.1.15,2013-11-10 05:55:00,
2013-11-10 01:05:00,37.5,32.5,29.97,NE,53,0.0,0.0,82,0.00,,,0.00,Wunderground v.1.15,2013-11-10 06:05:00,
2013-11-10 01:15:00,37.2,32.2,29.96,NE,53,0.0,0.0,82,0.00,,,0.00,Wunderground v.1.15,2013-11-10 06:15:00,
2013-11-10 01:20:00,37.0,32.3,29.96,NE,53,0.0,0.0,83,0.00,,,0.00,Wunderground v.1.15,2013-11-10 06:20:00,
2013-11-10 01:30:00,37.0,32.9,29.95,NE,53,0.0,0.0,85,0.00,,,0.00,Wunderground v.1.15,2013-11-10 06:30:00,
2013-11-10 01:40:00,37.2,34.0,29.95,NE,53,0.0,0.0,88,0.00,,,0.00,Wunderground v.1.15,2013-11-10 06:40:00,
2013-11-10 01:45:00,36.7,32.0,29.95,NE,53,0.0,0.0,83,0.00,,,0.00,Wunderground v.1.15,2013-11-10 06:45:00,
2013-11-10 01:55:00,35.5,31.1,29.95,NE,53,0.0,0.0,84,0.00,,,0.00,Wunderground v.1.15,2013-11-10 06:55:00,
2013-11-10 02:00:00,35.3,31.5,29.95,NE,53,0.0,0.0,86,0.00,,,0.00,Wunderground v.1.15,2013-11-10 07:00:00,
2013-11-10 02:10:00,35.1,31.3,29.95,NE,53,0.0,0.0,86,0.00,,,0.00,Wunderground v.1.15,2013-11-10 07:10:00,
2013-11-10 02:15:00,34.7,30.9,29.95,NE,53,0.0,1.0,86,0.00,,,0.00,Wunderground v.1.15,2013-11-10 07:15:00,
2013-11-10 02:25:00,34.2,31.0,29.95,NE,53,1.0,1.0,88,0.00,,,0.00,Wunderground v.1.15,2013-11-10 07:25:00,
2013-11-10 02:30:00,34.1,31.2,29.95,NE,53,0.0,0.0,89,0.00,,,0.00,Wunderground v.1.15,2013-11-10 07:30:00,
2013-11-10 02:40:00,33.9,31.0,29.95,NE,53,0.0,0.0,89,0.00,,,0.00,Wunderground v.1.15,2013-11-10 07:40:00,
2013-11-10 02:45:00,33.8,30.9,29.94,NE,53,0.0,0.0,89,0.00,,,0.00,Wunderground v.1.15,2013-11-10 07:45:00,
2013-11-10 02:55:00,33.6,30.7,29.94,NE,53,1.0,1.0,89,0.00,,,0.00,Wunderground v.1.15,2013-11-10 07:55:00,
2013-11-10 03:00:00,33.5,30.6,29.94,NE,53,1.0,1.0,89,0.00,,,0.00,Wunderground v.1.15,2013-11-10 08:00:00,
2013-11-10 03:10:00,33.6,31.3,29.94,NE,53,0.0,0.0,91,0.00,,,0.00,Wunderground v.1.15,2013-11-10 08:10:00,
2013-11-10 03:15:00,33.8,31.5,29.94,NE,53,0.0,0.0,91,0.00,,,0.00,Wunderground v.1.15,2013-11-10 08:15:00,
2013-11-10 03:25:00,33.6,31.0,29.94,NE,53,0.0,0.0,90,0.00,,,0.00,Wunderground v.1.15,2013-11-10 08:25:00,
2013-11-10 03:30:00,33.5,30.9,29.94,NE,53,0.0,0.0,90,0.00,,,0.00,Wunderground v.1.15,2013-11-10 08:30:00,
2013-11-10 03:40:00,33.5,30.9,29.93,NE,53,0.0,0.0,90,0.00,,,0.00,Wunderground v.1.15,2013-11-10 08:40:00,
2013-11-10 03:45:00,33.4,30.8,29.93,NE,53,0.0,0.0,90,0.00,,,0.00,Wunderground v.1.15,2013-11-10 08:45:00,
2013-11-10 03:55:00,33.2,30.6,29.93,NE,53,0.0,0.0,90,0.00,,,0.00,Wunderground v.1.15,2013-11-10 08:55:00,
2013-11-10 04:00:00,33.1,30.5,29.93,NE,53,0.0,0.0,90,0.00,,,0.00,Wunderground v.1.15,2013-11-10 09:00:00,
2013-11-10 04:10:00,33.0,30.7,29.93,NE,53,0.0,0.0,91,0.00,,,0.00,Wunderground v.1.15,2013-11-10 09:10:00,
2013-11-10 04:15:00,32.9,30.3,29.93,NE,53,0.0,0.0,90,0.00,,,0.00,Wunderground v.1.15,2013-11-10 09:15:00,
2013-11-10 04:25:00,32.6,30.3,29.93,NE,53,0.0,0.0,91,0.00,,,0.00,Wunderground v.1.15,2013-11-10 09:25:00,
2013-11-10 04:30:00,32.5,30.2,29.93,NE,53,0.0,0.0,91,0.00,,,0.00,Wunderground v.1.15,2013-11-10 09:30:00,
2013-11-10 04:40:00,32.9,30.8,29.94,NE,53,0.0,0.0,92,0.00,,,0.00,Wunderground v.1.15,2013-11-10 09:40:00,
2013-11-10 04:45:00,32.5,30.2,29.93,NE,53,0.0,0.0,91,0.00,,,0.00,Wunderground v.1.15,2013-11-10 09:45:00,
2013-11-10 04:55:00,31.9,29.6,29.93,NE,53,0.0,0.0,91,0.00,,,0.00,Wunderground v.1.15,2013-11-10 09:55:00,
2013-11-10 05:00:00,31.7,29.4,29.94,NE,53,0.0,0.0,91,0.00,,,0.00,Wunderground v.1.15,2013-11-10 10:00:00,
2013-11-10 05:10:00,31.4,29.3,29.94,NE,53,0.0,0.0,92,0.00,,,0.00,Wunderground v.1.15,2013-11-10 10:10:00,
2013-11-10 05:15:00,31.4,29.3,29.94,NE,53,0.0,0.0,92,0.00,,,0.00,Wunderground v.1.15,2013-11-10 10:15:00,
2013-11-10 05:25:00,31.4,29.3,29.93,NE,53,0.0,0.0,92,0.00,,,0.00,Wunderground v.1.15,2013-11-10 10:25:00,
2013-11-10 05:30:00,31.4,29.6,29.93,NE,53,0.0,0.0,93,0.00,,,0.00,Wunderground v.1.15,2013-11-10 10:30:00,
2013-11-10 05:40:00,31.5,29.7,29.93,NE,53,0.0,0.0,93,0.00,,,0.00,Wunderground v.1.15,2013-11-10 10:40:00,
2013-11-10 05:45:00,31.5,29.7,29.93,NE,53,0.0,0.0,93,0.00,,,0.00,Wunderground v.1.15,2013-11-10 10:45:00,
2013-11-10 05:55:00,31.7,29.9,29.93,NE,53,0.0,0.0,93,0.00,,,0.00,Wunderground v.1.15,2013-11-10 10:55:00,
2013-11-10 06:00:00,31.6,29.8,29.93,NE,53,0.0,0.0,93,0.00,,,0.00,Wunderground v.1.15,2013-11-10 11:00:00,
2013-11-10 06:05:00,31.5,29.7,29.93,NE,53,0.0,0.0,93,0.00,,,0.00,Wunderground v.1.15,2013-11-10 11:05:00,
2013-11-10 06:10:00,31.5,29.7,29.93,NE,53,0.0,0.0,93,0.00,,,0.00,Wunderground v.1.15,2013-11-10 11:10:00,
2013-11-10 06:15:00,31.4,29.6,29.93,NE,53,0.0,0.0,93,0.00,,,0.00,Wunderground v.1.15,2013-11-10 11:15:00,
2013-11-10 06:25:00,31.6,30.1,29.93,NE,53,0.0,0.0,94,0.00,,,0.00,Wunderground v.1.15,2013-11-10 11:25:00,
2013-11-10 06:30:00,31.9,30.4,29.93,NE,53,0.0,0.0,94,0.00,,,0.00,Wunderground v.1.15,2013-11-10 11:30:00,
2013-11-10 06:40:00,32.5,31.0,29.93,NE,53,0.0,0.0,94,0.00,,,0.00,Wunderground v.1.15,2013-11-10 11:40:00,
2013-11-10 06:45:00,33.0,31.5,29.93,NE,53,0.0,0.0,94,0.00,,,0.00,Wunderground v.1.15,2013-11-10 11:45:00,
2013-11-10 06:55:00,33.6,31.8,29.93,NE,53,0.0,0.0,93,0.00,,,0.00,Wunderground v.1.15,2013-11-10 11:55:00,
2013-11-10 07:00:00,33.8,32.0,29.93,NE,53,0.0,0.0,93,0.00,,,0.00,Wunderground v.1.15,2013-11-10 12:00:00,
2013-11-10 07:10:00,34.1,31.7,29.93,NE,53,0.0,0.0,91,0.00,,,0.00,Wunderground v.1.15,2013-11-10 12:10:00,
2013-11-10 07:15:00,34.4,32.0,29.93,NE,53,0.0,0.0,91,0.00,,,0.00,Wunderground v.1.15,2013-11-10 12:15:00,
2013-11-10 07:25:00,35.1,32.5,29.94,NE,53,0.0,0.0,90,0.00,,,0.00,Wunderground v.1.15,2013-11-10 12:25:00,
2013-11-10 07:30:00,35.4,32.5,29.94,NE,53,0.0,0.0,89,0.00,,,0.00,Wunderground v.1.15,2013-11-10 12:30:00,
2013-11-10 07:40:00,35.9,32.7,29.94,NE,53,0.0,0.0,88,0.00,,,0.00,Wunderground v.1.15,2013-11-10 12:40:00,
2013-11-10 07:45:00,36.2,32.7,29.94,NE,53,0.0,0.0,87,0.00,,,0.00,Wunderground v.1.15,2013-11-10 12:45:00,
2013-11-10 07:55:00,36.8,32.7,29.94,NE,53,0.0,0.0,85,0.00,,,0.00,Wunderground v.1.15,2013-11-10 12:55:00,
2013-11-10 08:00:00,37.3,33.2,29.94,NE,53,0.0,2.0,85,0.00,,,0.00,Wunderground v.1.15,2013-11-10 13:00:00,
2013-11-10 08:10:00,38.8,33.5,29.94,NE,53,1.0,2.0,81,0.00,,,0.00,Wunderground v.1.15,2013-11-10 13:10:00,
2013-11-10 08:15:00,39.4,33.7,29.94,SW,216,1.0,2.0,80,0.00,,,0.00,Wunderground v.1.15,2013-11-10 13:15:00,
2013-11-10 08:25:00,40.2,33.9,29.94,SSW,196,0.0,2.0,78,0.00,,,0.00,Wunderground v.1.15,2013-11-10 13:25:00,
2013-11-10 08:30:00,40.6,34.0,29.94,WSW,242,1.0,1.0,77,0.00,,,0.00,Wunderground v.1.15,2013-11-10 13:30:00,
2013-11-10 08:40:00,41.6,34.3,29.93,SW,233,1.0,1.0,75,0.00,,,0.00,Wunderground v.1.15,2013-11-10 13:40:00,
2013-11-10 08:45:00,42.1,34.7,29.93,SSW,205,1.0,1.0,75,0.00,,,0.00,Wunderground v.1.15,2013-11-10 13:45:00,
2013-11-10 08:55:00,43.1,34.3,29.93,West,266,1.0,2.0,71,0.00,,,0.00,Wunderground v.1.15,2013-11-10 13:55:00,
2013-11-10 09:00:00,43.6,34.8,29.93,West,269,1.0,1.0,71,0.00,,,0.00,Wunderground v.1.15,2013-11-10 14:00:00,
2013-11-10 09:10:00,44.6,34.7,29.93,SW,221,2.0,2.0,68,0.00,,,0.00,Wunderground v.1.15,2013-11-10 14:10:00,
2013-11-10 09:15:00,45.2,34.5,29.93,SSW,213,2.0,2.0,66,0.00,,,0.00,Wunderground v.1.15,2013-11-10 14:15:00,
2013-11-10 09:25:00,46.2,35.1,29.93,SW,223,2.0,2.0,65,0.00,,,0.00,Wunderground v.1.15,2013-11-10 14:25:00,
2013-11-10 09:30:00,46.6,34.7,29.92,SSW,212,1.0,2.0,63,0.00,,,0.00,Wunderground v.1.15,2013-11-10 14:30:00,
2013-11-10 09:40:00,47.6,34.8,29.92,SW,223,2.0,2.0,61,0.00,,,0.00,Wunderground v.1.15,2013-11-10 14:40:00,
2013-11-10 09:45:00,48.1,35.7,29.91,West,261,2.0,2.0,62,0.00,,,0.00,Wunderground v.1.15,2013-11-10 14:45:00,
2013-11-10 09:55:00,49.0,35.3,29.91,WSW,242,1.0,2.0,59,0.00,,,0.00,Wunderground v.1.15,2013-11-10 14:55:00,
2013-11-10 10:00:00,49.6,36.3,29.91,SSW,205,2.0,5.0,60,0.00,,,0.00,Wunderground v.1.15,2013-11-10 15:00:00,
2013-11-10 10:10:00,50.9,36.2,29.90,SW,231,2.0,3.0,57,0.00,,,0.00,Wunderground v.1.15,2013-11-10 15:10:00,
2013-11-10 10:15:00,51.5,36.3,29.90,South,181,2.0,5.0,56,0.00,,,0.00,Wunderground v.1.15,2013-11-10 15:15:00,
2013-11-10 10:25:00,52.2,37.0,29.89,SSW,200,2.0,2.0,56,0.00,,,0.00,Wunderground v.1.15,2013-11-10 15:25:00,
2013-11-10 10:30:00,53.0,36.8,29.89,WNW,288,2.0,2.0,54,0.00,,,0.00,Wunderground v.1.15,2013-11-10 15:30:00,
2013-11-10 10:40:00,53.6,37.3,29.89,West,267,2.0,3.0,54,0.00,,,0.00,Wunderground v.1.15,2013-11-10 15:40:00,
2013-11-10 10:45:00,54.3,37.5,29.89,WSW,250,3.0,3.0,53,0.00,,,0.00,Wunderground v.1.15,2013-11-10 15:45:00,
2013-11-10 10:55:00,56.1,38.2,29.88,SW,223,3.0,5.0,51,0.00,,,0.00,Wunderground v.1.15,2013-11-10 15:55:00,
2013-11-10 11:00:00,55.8,36.4,29.88,SSW,210,4.0,6.0,48,0.00,,,0.00,Wunderground v.1.15,2013-11-10 16:00:00,
2013-11-10 11:10:00,54.7,36.9,29.88,WSW,254,4.0,4.0,51,0.00,,,0.00,Wunderground v.1.15,2013-11-10 16:10:00,
2013-11-10 11:15:00,54.5,36.7,29.88,WNW,290,3.0,4.0,51,0.00,,,0.00,Wunderground v.1.15,2013-11-10 16:15:00,
2013-11-10 11:25:00,54.6,37.3,29.87,SSW,203,2.0,3.0,52,0.00,,,0.00,Wunderground v.1.15,2013-11-10 16:25:00,
2013-11-10 11:30:00,55.0,37.7,29.87,SSW,200,2.0,7.0,52,0.00,,,0.00,Wunderground v.1.15,2013-11-10 16:30:00,
2013-11-10 11:40:00,55.8,36.4,29.86,SSW,196,5.0,7.0,48,0.00,,,0.00,Wunderground v.1.15,2013-11-10 16:40:00,
2013-11-10 11:45:00,55.6,37.2,29.86,SW,234,4.0,7.0,50,0.00,,,0.00,Wunderground v.1.15,2013-11-10 16:45:00,
2013-11-10 11:55:00,54.8,36.5,29.86,West,275,4.0,4.0,50,0.00,,,0.00,Wunderground v.1.15,2013-11-10 16:55:00,
2013-11-10 12:00:00,54.5,37.7,29.86,WSW,250,3.0,3.0,53,0.00,,,0.00,Wunderground v.1.15,2013-11-10 17:00:00,
2013-11-10 12:10:00,54.5,36.2,29.87,West,263,3.0,3.0,50,0.00,,,0.00,Wunderground v.1.15,2013-11-10 17:10:00,
2013-11-10 12:15:00,55.0,36.7,29.86,NE,42,3.0,3.0,50,0.00,,,0.00,Wunderground v.1.15,2013-11-10 17:15:00,
2013-11-10 12:25:00,55.6,37.2,29.86,West,261,3.0,3.0,50,0.00,,,0.00,Wunderground v.1.15,2013-11-10 17:25:00,
2013-11-10 12:30:00,55.7,37.3,29.86,West,266,3.0,4.0,50,0.00,,,0.00,Wunderground v.1.15,2013-11-10 17:30:00,
2013-11-10 12:40:00,55.4,36.0,29.86,West,272,3.0,3.0,48,0.00,,,0.00,Wunderground v.1.15,2013-11-10 17:40:00,
2013-11-10 12:45:00,55.0,35.7,29.86,West,279,4.0,4.0,48,0.00,,,0.00,Wunderground v.1.15,2013-11-10 17:45:00,
2013-11-10 12:55:00,54.8,36.0,29.87,West,269,3.0,4.0,49,0.00,,,0.00,Wunderground v.1.15,2013-11-10 17:55:00,
2013-11-10 13:00:00,54.6,34.8,29.87,WNW,286,3.0,5.0,47,0.00,,,0.00,Wunderground v.1.15,2013-11-10 18:00:00,
2013-11-10 13:10:00,54.2,34.9,29.87,West,260,4.0,4.0,48,0.00,,,0.00,Wunderground v.1.15,2013-11-10 18:10:00,
2013-11-10 13:15:00,54.0,35.3,29.87,NNW,329,3.0,4.0,49,0.00,,,0.00,Wunderground v.1.15,2013-11-10 18:15:00,
2013-11-10 13:25:00,53.6,34.9,29.88,WNW,282,3.0,3.0,49,0.00,,,0.00,Wunderground v.1.15,2013-11-10 18:25:00,
2013-11-10 13:30:00,53.6,34.9,29.89,NW,309,3.0,3.0,49,0.00,,,0.00,Wunderground v.1.15,2013-11-10 18:30:00,
2013-11-10 13:40:00,53.3,34.6,29.90,West,281,2.0,2.0,49,0.00,,,0.00,Wunderground v.1.15,2013-11-10 18:40:00,
2013-11-10 13:45:00,52.8,36.6,29.91,West,267,3.0,3.0,54,0.00,,,0.00,Wunderground v.1.15,2013-11-10 18:45:00,
2013-11-10 13:55:00,50.6,37.2,29.92,NNW,342,4.0,4.0,60,0.00,,,0.00,Wunderground v.1.15,2013-11-10 18:55:00,
2013-11-10 14:00:00,49.9,37.4,29.92,WNW,297,4.0,4.0,62,0.00,,,0.00,Wunderground v.1.15,2013-11-10 19:00:00,
2013-11-10 14:10:00,49.0,37.3,29.93,NNW,329,2.0,2.0,64,0.00,,,0.00,Wunderground v.1.15,2013-11-10 19:10:00,
2013-11-10 14:15:00,48.8,37.2,29.93,West,269,3.0,3.0,64,0.00,,,0.00,Wunderground v.1.15,2013-11-10 19:15:00,
2013-11-10 14:25:00,48.8,37.2,29.93,West,259,3.0,3.0,64,0.00,,,0.00,Wunderground v.1.15,2013-11-10 19:25:00,
2013-11-10 14:30:00,48.8,37.2,29.93,NW,307,2.0,3.0,64,0.00,,,0.00,Wunderground v.1.15,2013-11-10 19:30:00,
2013-11-10 14:40:00,49.1,37.0,29.93,West,267,2.0,2.0,63,0.00,,,0.00,Wunderground v.1.15,2013-11-10 19:40:00,
2013-11-10 14:45:00,49.3,36.8,29.93,NW,304,2.0,2.0,62,0.00,,,0.00,Wunderground v.1.15,2013-11-10 19:45:00,
2013-11-10 14:55:00,49.7,36.8,29.93,West,280,2.0,2.0,61,0.00,,,0.00,Wunderground v.1.15,2013-11-10 19:55:00,
2013-11-10 15:05:00,49.7,36.8,29.94,West,271,3.0,3.0,61,0.00,,,0.00,Wunderground v.1.15,2013-11-10 20:05:00,
2013-11-10 15:20:00,49.9,36.6,29.95,West,267,2.0,3.0,60,0.00,,,0.00,Wunderground v.1.15,2013-11-10 20:20:00,
2013-11-10 15:25:00,50.0,36.7,29.95,West,273,2.0,3.0,60,0.00,,,0.00,Wunderground v.1.15,2013-11-10 20:25:00,
2013-11-10 15:30:00,50.1,36.7,29.95,West,266,2.0,2.0,60,0.00,,,0.00,Wunderground v.1.15,2013-11-10 20:30:00,
2013-11-10 15:39:00,50.0,36.7,29.95,WSW,256,1.0,3.0,60,0.00,,,0.00,Wunderground v.1.15,2013-11-10 20:39:00,
2013-11-10 15:45:00,50.0,35.8,29.96,West,275,2.0,3.0,58,0.00,,,0.00,Wunderground v.1.15,2013-11-10 20:45:00,
2013-11-10 15:54:00,50.2,35.5,29.96,WSW,257,2.0,4.0,57,0.00,,,0.00,Wunderground v.1.15,2013-11-10 20:54:00,
2013-11-10 16:00:00,50.2,35.5,29.96,WSW,257,2.0,2.0,57,0.00,,,0.00,Wunderground v.1.15,2013-11-10 21:00:00,
2013-11-10 16:09:00,50.2,35.5,29.97,WSW,252,2.0,2.0,57,0.00,,,0.00,Wunderground v.1.15,2013-11-10 21:09:00,
2013-11-10 16:15:00,50.1,35.0,29.97,West,265,2.0,2.0,56,0.00,,,0.00,Wunderground v.1.15,2013-11-10 21:15:00,
2013-11-10 16:24:00,50.0,33.1,29.98,WSW,257,2.0,3.0,52,0.00,,,0.00,Wunderground v.1.15,2013-11-10 21:24:00,
2013-11-10 16:30:00,49.9,33.0,29.98,West,277,2.0,3.0,52,0.00,,,0.00,Wunderground v.1.15,2013-11-10 21:30:00,
2013-11-10 16:39:00,49.8,32.4,29.98,West,271,3.0,3.0,51,0.00,,,0.00,Wunderground v.1.15,2013-11-10 21:39:00,
2013-11-10 16:45:00,49.7,32.3,29.98,West,267,3.0,4.0,51,0.00,,,0.00,Wunderground v.1.15,2013-11-10 21:45:00,
2013-11-10 16:54:00,49.7,31.8,29.99,West,267,3.0,4.0,50,0.00,,,0.00,Wunderground v.1.15,2013-11-10 21:54:00,
2013-11-10 17:00:00,49.7,31.3,29.99,West,265,3.0,3.0,49,0.00,,,0.00,Wunderground v.1.15,2013-11-10 22:00:00,
2013-11-10 17:09:00,49.7,31.8,29.99,West,266,3.0,3.0,50,0.00,,,0.00,Wunderground v.1.15,2013-11-10 22:09:00,
2013-11-10 17:15:00,49.6,32.2,29.99,WSW,254,2.0,3.0,51,0.00,,,0.00,Wunderground v.1.15,2013-11-10 22:15:00,
2013-11-10 17:24:00,49.5,31.6,29.99,West,263,2.0,3.0,50,0.00,,,0.00,Wunderground v.1.15,2013-11-10 22:24:00,
2013-11-10 17:30:00,49.5,31.6,30.00,West,268,2.0,2.0,50,0.00,,,0.00,Wunderground v.1.15,2013-11-10 22:30:00,
2013-11-10 17:40:00,49.4,31.5,30.00,West,270,2.0,2.0,50,0.00,,,0.00,Wunderground v.1.15,2013-11-10 22:40:00,
2013-11-10 17:45:00,49.4,31.5,30.01,West,275,2.0,2.0,50,0.00,,,0.00,Wunderground v.1.15,2013-11-10 22:45:00,
2013-11-10 17:55:00,49.4,31.5,30.01,WSW,257,2.0,5.0,50,0.00,,,0.00,Wunderground v.1.15,2013-11-10 22:55:00,
2013-11-10 18:00:00,49.5,31.1,30.01,WNW,286,3.0,3.0,49,0.00,,,0.00,Wunderground v.1.15,2013-11-10 23:00:00,
2013-11-10 18:10:00,49.2,31.3,30.01,West,267,3.0,5.0,50,0.00,,,0.00,Wunderground v.1.15,2013-11-10 23:10:00,
2013-11-10 18:15:00,49.1,31.2,30.01,NW,309,3.0,5.0,50,0.00,,,0.00,Wunderground v.1.15,2013-11-10 23:15:00,
2013-11-10 18:25:00,48.8,31.5,30.02,West,265,3.0,4.0,51,0.00,,,0.00,Wunderground v.1.15,2013-11-10 23:25:00,
2013-11-10 18:30:00,48.6,30.8,30.02,WSW,256,3.0,3.0,50,0.00,,,0.00,Wunderground v.1.15,2013-11-10 23:30:00,
2013-11-10 18:40:00,48.6,31.3,30.02,West,279,3.0,3.0,51,0.00,,,0.00,Wunderground v.1.15,2013-11-10 23:40:00,
2013-11-10 18:45:00,48.3,31.5,30.02,West,273,3.0,3.0,52,0.00,,,0.00,Wunderground v.1.15,2013-11-10 23:45:00,
2013-11-10 18:55:00,48.5,31.2,30.03,WNW,286,2.0,2.0,51,0.00,,,0.00,Wunderground v.1.15,2013-11-10 23:55:00,
2013-11-10 19:00:00,48.6,31.3,30.03,SW,229,3.0,6.0,51,0.00,,,0.00,Wunderground v.1.15,2013-11-11 00:00:00,
2013-11-10 19:10:00,48.9,30.6,30.03,WSW,254,4.0,5.0,49,0.00,,,0.00,Wunderground v.1.15,2013-11-11 00:10:00,
2013-11-10 19:15:00,48.9,31.1,30.03,WSW,246,3.0,5.0,50,0.00,,,0.00,Wunderground v.1.15,2013-11-11 00:15:00,
2013-11-10 19:24:00,48.7,30.9,30.03,WNW,291,2.0,5.0,50,0.00,,,0.00,Wunderground v.1.15,2013-11-11 00:24:00,
2013-11-10 19:30:00,48.7,31.4,30.03,West,261,2.0,4.0,51,0.00,,,0.00,Wunderground v.1.15,2013-11-11 00:30:00,
2013-11-10 19:39:00,48.5,31.7,30.03,West,278,3.0,3.0,52,0.00,,,0.00,Wunderground v.1.15,2013-11-11 00:39:00,
2013-11-10 19:45:00,48.5,31.2,30.03,West,268,3.0,3.0,51,0.00,,,0.00,Wunderground v.1.15,2013-11-11 00:45:00,
2013-11-10 19:55:00,48.6,31.3,30.03,West,281,3.0,5.0,51,0.00,,,0.00,Wunderground v.1.15,2013-11-11 00:55:00,
2013-11-10 20:00:00,48.5,31.7,30.03,West,262,3.0,3.0,52,0.00,,,0.00,Wunderground v.1.15,2013-11-11 01:00:00,
2013-11-10 20:10:00,48.6,31.8,30.04,NW,322,3.0,3.0,52,0.00,,,0.00,Wunderground v.1.15,2013-11-11 01:10:00,
2013-11-10 20:15:00,48.6,31.8,30.04,West,267,3.0,3.0,52,0.00,,,0.00,Wunderground v.1.15,2013-11-11 01:15:00,
2013-11-10 20:25:00,48.6,31.3,30.05,West,267,3.0,3.0,51,0.00,,,0.00,Wunderground v.1.15,2013-11-11 01:25:00,
2013-11-10 20:30:00,48.6,31.8,30.05,WSW,255,2.0,5.0,52,0.00,,,0.00,Wunderground v.1.15,2013-11-11 01:30:00,
2013-11-10 20:39:00,48.5,31.7,30.06,West,265,3.0,3.0,52,0.00,,,0.00,Wunderground v.1.15,2013-11-11 01:39:00,
2013-11-10 20:45:00,48.3,31.0,30.07,West,264,3.0,3.0,51,0.00,,,0.00,Wunderground v.1.15,2013-11-11 01:45:00,
2013-11-10 20:54:00,48.3,31.0,30.07,West,269,3.0,3.0,51,0.00,,,0.00,Wunderground v.1.15,2013-11-11 01:54:00,
2013-11-10 21:00:00,48.3,31.0,30.07,West,269,3.0,3.0,51,0.00,,,0.00,Wunderground v.1.15,2013-11-11 02:00:00,
2013-11-10 21:10:00,48.2,31.4,30.07,West,264,1.0,2.0,52,0.00,,,0.00,Wunderground v.1.15,2013-11-11 02:10:00,
2013-11-10 21:15:00,48.1,30.8,30.07,West,281,2.0,2.0,51,0.00,,,0.00,Wunderground v.1.15,2013-11-11 02:15:00,
2013-11-10 21:25:00,48.1,30.8,30.07,West,263,3.0,6.0,51,0.00,,,0.00,Wunderground v.1.15,2013-11-11 02:25:00,
2013-11-10 21:30:00,48.0,31.7,30.07,West,267,2.0,2.0,53,0.00,,,0.00,Wunderground v.1.15,2013-11-11 02:30:00,
2013-11-10 21:40:00,47.7,31.9,30.08,WSW,248,1.0,5.0,54,0.00,,,0.00,Wunderground v.1.15,2013-11-11 02:40:00,
2013-11-10 21:49:00,47.5,31.2,30.08,SW,230,2.0,4.0,53,0.00,,,0.00,Wunderground v.1.15,2013-11-11 02:49:00,
2013-11-10 22:01:00,47.3,31.0,30.08,West,269,3.0,3.0,53,0.00,,,0.00,Wunderground v.1.15,2013-11-11 03:01:00,
2013-11-10 22:11:00,47.2,30.9,30.09,West,267,2.0,3.0,53,0.00,,,0.00,Wunderground v.1.15,2013-11-11 03:11:00,
2013-11-10 22:16:00,47.0,31.2,30.08,West,275,2.0,3.0,54,0.00,,,0.00,Wunderground v.1.15,2013-11-11 03:16:00,
2013-11-10 22:25:00,46.9,31.1,30.09,WSW,257,2.0,3.0,54,0.00,,,0.00,Wunderground v.1.15,2013-11-11 03:25:00,
2013-11-10 22:31:00,46.9,31.1,30.09,West,273,2.0,2.0,54,0.00,,,0.00,Wunderground v.1.15,2013-11-11 03:31:00,
2013-11-10 22:41:00,46.7,31.4,30.08,West,263,1.0,1.0,55,0.00,,,0.00,Wunderground v.1.15,2013-11-11 03:41:00,
2013-11-10 22:46:00,46.5,31.6,30.08,WSW,258,1.0,2.0,56,0.00,,,0.00,Wunderground v.1.15,2013-11-11 03:46:00,
2013-11-10 22:56:00,46.3,31.4,30.08,WSW,258,2.0,2.0,56,0.00,,,0.00,Wunderground v.1.15,2013-11-11 03:56:00,
2013-11-10 23:01:00,46.1,31.3,30.09,West,269,2.0,2.0,56,0.00,,,0.00,Wunderground v.1.15,2013-11-11 04:01:00,
2013-11-10 23:11:00,45.8,31.4,30.09,WSW,258,1.0,1.0,57,0.00,,,0.00,Wunderground v.1.15,2013-11-11 04:11:00,
2013-11-10 23:16:00,45.6,31.2,30.09,WSW,248,1.0,1.0,57,0.00,,,0.00,Wunderground v.1.15,2013-11-11 04:16:00,
2013-11-10 23:25:00,45.2,31.3,30.09,West,267,2.0,2.0,58,0.00,,,0.00,Wunderground v.1.15,2013-11-11 04:25:00,
2013-11-10 23:31:00,45.1,31.2,30.09,NW,307,2.0,2.0,58,0.00,,,0.00,Wunderground v.1.15,2013-11-11 04:31:00,
2013-11-10 23:40:00,45.2,31.3,30.09,West,277,1.0,1.0,58,0.00,,,0.00,Wunderground v.1.15,2013-11-11 04:40:00,
2013-11-10 23:46:00,45.3,31.8,30.10,NW,311,1.0,1.0,59,0.00,,,0.00,Wunderground v.1.15,2013-11-11 04:46:00,
2013-11-10 23:55:00,45.5,31.6,30.10,West,266,2.0,4.0,58,0.00,,,0.00,Wunderground v.1.15,2013-11-11 04:55:00,